Time,TemperatureF,DewpointF,PressureIn,WindDirection,WindDirectionDegrees,WindSpeedMPH,WindSpeedGustMPH,Humidity,HourlyPrecipIn,Conditions,Clouds,dailyrainin,SolarRadiationWatts/m^2,SoftwareType,DateUTC
2013-10-19 00:01:00,74.7,73.2,29.91,East,93,0.0,0.0,95,0.00,,,0.00,0.0,meteohub,2013-10-19 04:01:00,
2013-10-19 00:02:00,74.7,73.2,29.91,East,92,0.0,0.0,95,0.00,,,0.00,0.0,meteohub,2013-10-19 04:02:00,
2013-10-19 00:07:00,74.7,73.2,29.91,East,93,0.0,0.0,95,0.00,,,0.00,0.0,meteohub,2013-10-19 04:07:00,
2013-10-19 00:12:00,74.7,73.2,29.91,East,93,0.0,0.0,95,0.00,,,0.00,0.0,meteohub,2013-10-19 04:12:00,
2013-10-19 00:17:00,74.7,73.2,29.91,East,93,0.0,0.0,95,0.00,,,0.00,0.0,meteohub,2013-10-19 04:17:00,
2013-10-19 00:22:00,74.7,73.2,29.91,East,92,0.0,0.0,95,0.00,,,0.00,0.0,meteohub,2013-10-19 04:22:00,
2013-10-19 00:27:00,74.7,73.2,29.91,East,93,0.0,0.0,95,0.00,,,0.00,0.0,meteohub,2013-10-19 04:27:00,
2013-10-19 00:32:00,74.7,73.2,29.90,East,93,0.0,0.0,95,0.00,,,0.00,0.0,meteohub,2013-10-19 04:32:00,
2013-10-19 00:37:00,74.8,73.6,29.90,East,92,0.0,1.0,96,0.00,,,0.00,0.0,meteohub,2013-10-19 04:37:00,
2013-10-19 00:42:00,74.8,73.6,29.90,East,93,0.0,1.0,96,0.00,,,0.00,0.0,meteohub,2013-10-19 04:42:00,
2013-10-19 00:47:00,75.0,73.8,29.90,SE,140,0.0,3.0,96,0.00,,,0.00,0.0,meteohub,2013-10-19 04:47:00,
2013-10-19 00:52:00,75.2,73.6,29.90,SE,140,0.0,3.0,95,0.00,,,0.00,0.0,meteohub,2013-10-19 04:52:00,
2013-10-19 00:57:00,75.4,73.8,29.90,SE,140,0.0,3.0,95,0.00,,,0.00,0.0,meteohub,2013-10-19 04:57:00,
2013-10-19 01:02:00,75.4,73.8,29.90,SE,140,0.0,2.0,95,0.00,,,0.00,0.0,meteohub,2013-10-19 05:02:00,
2013-10-19 01:07:00,75.6,73.9,29.90,SE,140,0.0,1.0,95,0.00,,,0.00,0.0,meteohub,2013-10-19 05:07:00,
2013-10-19 01:12:00,75.6,73.8,29.90,SSE,150,0.0,3.0,94,0.00,,,0.00,0.0,meteohub,2013-10-19 05:12:00,
2013-10-19 01:17:00,75.7,73.9,29.90,SSE,150,0.0,3.0,94,0.00,,,0.00,0.0,meteohub,2013-10-19 05:17:00,
2013-10-19 01:22:00,75.7,73.9,29.89,South,184,0.0,3.0,94,0.00,,,0.00,0.0,meteohub,2013-10-19 05:22:00,
2013-10-19 01:27:00,75.7,73.9,29.89,South,185,0.0,3.0,94,0.00,,,0.00,0.0,meteohub,2013-10-19 05:27:00,
2013-10-19 01:32:00,75.9,73.8,29.89,South,185,0.0,3.0,93,0.00,,,0.00,0.0,meteohub,2013-10-19 05:32:00,
2013-10-19 01:37:00,75.9,73.8,29.89,South,184,0.0,2.0,93,0.00,,,0.00,0.0,meteohub,2013-10-19 05:37:00,
2013-10-19 01:42:00,75.9,73.8,29.89,South,185,0.0,1.0,93,0.00,,,0.00,0.0,meteohub,2013-10-19 05:42:00,
2013-10-19 01:47:00,75.9,73.8,29.89,SSW,202,0.0,0.0,93,0.00,,,0.00,0.0,meteohub,2013-10-19 05:47:00,
2013-10-19 01:52:00,75.9,73.8,29.90,SSW,196,0.0,3.0,93,0.00,,,0.00,0.0,meteohub,2013-10-19 05:52:00,
2013-10-19 01:57:00,75.7,73.6,29.89,SSE,149,0.0,3.0,93,0.00,,,0.00,0.0,meteohub,2013-10-19 05:57:00,
2013-10-19 02:02:00,75.9,73.4,29.89,SSE,155,0.0,3.0,92,0.00,,,0.00,0.0,meteohub,2013-10-19 06:02:00,
2013-10-19 02:07:00,75.9,73.4,29.89,SSE,155,0.0,3.0,92,0.00,,,0.00,0.0,meteohub,2013-10-19 06:07:00,
2013-10-19 02:12:00,75.9,73.4,29.89,WSW,248,0.0,3.0,92,0.00,,,0.00,0.0,meteohub,2013-10-19 06:12:00,
2013-10-19 02:17:00,75.9,73.0,29.89,South,174,2.0,4.0,91,0.00,,,0.00,0.0,meteohub,2013-10-19 06:17:00,
2013-10-19 02:22:00,75.9,73.0,29.89,SW,235,1.0,5.0,91,0.00,,,0.00,0.0,meteohub,2013-10-19 06:22:00,
2013-10-19 02:27:00,75.9,73.0,29.89,SW,230,0.0,5.0,91,0.00,,,0.00,0.0,meteohub,2013-10-19 06:27:00,
2013-10-19 02:32:00,75.9,73.0,29.89,SSE,163,0.0,5.0,91,0.00,,,0.00,0.0,meteohub,2013-10-19 06:32:00,
2013-10-19 02:37:00,75.9,73.0,29.89,SSW,211,0.0,6.0,91,0.00,,,0.00,0.0,meteohub,2013-10-19 06:37:00,
2013-10-19 02:42:00,75.7,72.9,29.89,South,180,0.0,9.0,91,0.00,,,0.00,0.0,meteohub,2013-10-19 06:42:00,
2013-10-19 02:47:00,75.6,72.7,29.89,South,181,1.0,9.0,91,0.00,,,0.00,0.0,meteohub,2013-10-19 06:47:00,
2013-10-19 02:52:00,75.6,72.7,29.88,SSE,165,5.0,9.0,91,0.00,,,0.00,0.0,meteohub,2013-10-19 06:52:00,
2013-10-19 02:57:00,75.4,72.9,29.88,SSW,192,1.0,7.0,92,0.00,,,0.00,0.0,meteohub,2013-10-19 06:57:00,
2013-10-19 03:02:00,75.4,72.9,29.88,South,188,0.0,7.0,92,0.00,,,0.00,0.0,meteohub,2013-10-19 07:02:00,
2013-10-19 03:07:00,75.2,72.7,29.88,South,190,0.0,7.0,92,0.00,,,0.00,0.0,meteohub,2013-10-19 07:07:00,
2013-10-19 03:12:00,75.0,72.5,29.88,SSE,157,0.0,3.0,92,0.00,,,0.00,0.0,meteohub,2013-10-19 07:12:00,
2013-10-19 03:17:00,74.8,72.3,29.88,SSE,157,0.0,4.0,92,0.00,,,0.00,0.0,meteohub,2013-10-19 07:17:00,
2013-10-19 03:22:00,74.8,72.3,29.88,SSE,157,0.0,4.0,92,0.00,,,0.00,0.0,meteohub,2013-10-19 07:22:00,
2013-10-19 03:27:00,74.7,72.5,29.88,South,184,0.0,4.0,93,0.00,,,0.00,0.0,meteohub,2013-10-19 07:27:00,
2013-10-19 03:32:00,74.7,72.5,29.89,SSE,155,0.0,6.0,93,0.00,,,0.00,0.0,meteohub,2013-10-19 07:32:00,
2013-10-19 03:37:00,74.7,72.5,29.89,South,173,0.0,6.0,93,0.00,,,0.00,0.0,meteohub,2013-10-19 07:37:00,
2013-10-19 03:42:00,74.5,72.3,29.89,South,175,0.0,6.0,93,0.00,,,0.00,0.0,meteohub,2013-10-19 07:42:00,
2013-10-19 03:47:00,74.4,72.0,29.89,SSE,156,0.0,-999.0,93,-99.99,,,0.00,0,weatherlink.com 1.10,2013-10-19 07:47:00,
2013-10-19 03:52:00,74.5,72.3,29.89,SSE,157,0.0,5.0,93,0.00,,,0.00,0.0,meteohub,2013-10-19 07:52:00,
2013-10-19 03:57:00,74.3,72.1,29.89,SSE,153,2.0,3.0,93,0.00,,,0.00,0.0,meteohub,2013-10-19 07:57:00,
2013-10-19 04:02:00,74.1,72.0,29.89,South,173,0.0,2.0,93,0.00,,,0.00,0.0,meteohub,2013-10-19 08:02:00,
2013-10-19 04:07:00,74.1,72.0,29.89,South,187,2.0,5.0,93,0.00,,,0.00,0.0,meteohub,2013-10-19 08:07:00,
2013-10-19 04:12:00,74.1,72.0,29.89,SSW,212,0.0,5.0,93,0.00,,,0.00,0.0,meteohub,2013-10-19 08:12:00,
2013-10-19 04:18:00,74.3,71.8,29.89,SSE,162,0.0,7.0,92,0.00,,,0.00,0.0,meteohub,2013-10-19 08:18:00,
2013-10-19 04:23:00,74.3,71.8,29.89,SW,232,0.0,7.0,92,0.00,,,0.00,0.0,meteohub,2013-10-19 08:23:00,
2013-10-19 04:28:00,74.1,71.6,29.88,South,171,0.0,7.0,92,0.00,,,0.00,0.0,meteohub,2013-10-19 08:28:00,
2013-10-19 04:33:00,74.1,71.6,29.88,South,172,0.0,3.0,92,0.00,,,0.00,0.0,meteohub,2013-10-19 08:33:00,
2013-10-19 04:38:00,74.1,71.6,29.88,South,180,0.0,3.0,92,0.00,,,0.00,0.0,meteohub,2013-10-19 08:38:00,
2013-10-19 04:43:00,74.1,71.6,29.88,South,180,2.0,3.0,92,0.00,,,0.00,0.0,meteohub,2013-10-19 08:43:00,
2013-10-19 04:48:00,73.9,71.4,29.88,South,182,0.0,3.0,92,0.00,,,0.00,0.0,meteohub,2013-10-19 08:48:00,
2013-10-19 04:53:00,73.9,71.4,29.88,South,182,2.0,3.0,92,0.00,,,0.00,0.0,meteohub,2013-10-19 08:53:00,
2013-10-19 04:58:00,73.8,71.2,29.88,South,182,0.0,3.0,92,0.00,,,0.00,0.0,meteohub,2013-10-19 08:58:00,
2013-10-19 05:03:00,73.8,71.6,29.88,South,182,0.0,3.0,93,0.00,,,0.00,0.0,meteohub,2013-10-19 09:03:00,
2013-10-19 05:08:00,73.6,71.4,29.88,South,182,0.0,3.0,93,0.00,,,0.00,0.0,meteohub,2013-10-19 09:08:00,
2013-10-19 05:13:00,73.6,71.4,29.88,South,181,0.0,3.0,93,0.00,,,0.00,0.0,meteohub,2013-10-19 09:13:00,
2013-10-19 05:18:00,73.6,71.4,29.88,South,180,0.0,2.0,93,0.00,,,0.00,0.0,meteohub,2013-10-19 09:18:00,
2013-10-19 05:23:00,73.6,71.4,29.88,South,184,4.0,4.0,93,0.00,,,0.00,0.0,meteohub,2013-10-19 09:23:00,
2013-10-19 05:28:00,73.6,71.4,29.88,South,184,0.0,4.0,93,0.00,,,0.00,0.0,meteohub,2013-10-19 09:28:00,
2013-10-19 05:33:00,73.4,71.2,29.88,South,183,0.0,4.0,93,0.00,,,0.00,0.0,meteohub,2013-10-19 09:33:00,
2013-10-19 05:38:00,73.2,71.1,29.88,South,183,0.0,4.0,93,0.00,,,0.00,0.0,meteohub,2013-10-19 09:38:00,
2013-10-19 05:43:00,73.2,71.1,29.88,South,184,0.0,1.0,93,0.00,,,0.00,0.0,meteohub,2013-10-19 09:43:00,
2013-10-19 05:48:00,73.0,70.9,29.88,South,184,0.0,1.0,93,0.00,,,0.00,0.0,meteohub,2013-10-19 09:48:00,
2013-10-19 05:53:00,73.0,70.9,29.88,South,183,0.0,1.0,93,0.00,,,0.00,0.0,meteohub,2013-10-19 09:53:00,
2013-10-19 05:58:00,72.9,70.7,29.88,South,184,0.0,1.0,93,0.00,,,0.00,0.0,meteohub,2013-10-19 09:58:00,
2013-10-19 06:03:00,72.9,71.1,29.88,South,184,0.0,1.0,94,0.00,,,0.00,0.0,meteohub,2013-10-19 10:03:00,
2013-10-19 06:08:00,72.9,71.1,29.88,South,184,0.0,1.0,94,0.00,,,0.00,0.0,meteohub,2013-10-19 10:08:00,
2013-10-19 06:13:00,72.9,71.1,29.88,South,184,0.0,2.0,94,0.00,,,0.00,0.0,meteohub,2013-10-19 10:13:00,
2013-10-19 06:18:00,72.7,70.9,29.88,South,184,0.0,2.0,94,0.00,,,0.00,0.0,meteohub,2013-10-19 10:18:00,
2013-10-19 06:23:00,72.7,70.9,29.88,South,183,0.0,2.0,94,0.00,,,0.00,0.0,meteohub,2013-10-19 10:23:00,
2013-10-19 06:28:00,72.7,70.9,29.88,South,184,0.0,1.0,94,0.00,,,0.00,0.0,meteohub,2013-10-19 10:28:00,
2013-10-19 06:33:00,72.5,70.7,29.89,South,184,0.0,1.0,94,0.00,,,0.00,0.0,meteohub,2013-10-19 10:33:00,
2013-10-19 06:38:00,72.3,70.5,29.89,South,184,0.0,0.0,94,0.00,,,0.00,0.0,meteohub,2013-10-19 10:38:00,
2013-10-19 06:43:00,72.3,70.5,29.89,South,184,0.0,0.0,94,0.00,,,0.00,0.0,meteohub,2013-10-19 10:43:00,
2013-10-19 06:48:00,72.3,70.9,29.89,South,184,0.0,0.0,95,0.00,,,0.00,0.0,meteohub,2013-10-19 10:48:00,
2013-10-19 06:53:00,72.1,70.7,29.89,South,183,0.0,0.0,95,0.00,,,0.00,0.0,meteohub,2013-10-19 10:53:00,
2013-10-19 06:58:00,72.1,70.7,29.89,South,184,0.0,0.0,95,0.00,,,0.00,0.0,meteohub,2013-10-19 10:58:00,
2013-10-19 07:03:00,72.1,70.7,29.89,South,184,0.0,0.0,95,0.00,,,0.00,0.0,meteohub,2013-10-19 11:03:00,
2013-10-19 07:08:00,72.1,70.7,29.89,South,184,0.0,0.0,95,0.00,,,0.00,0.0,meteohub,2013-10-19 11:08:00,
2013-10-19 07:13:00,72.1,70.7,29.89,South,184,0.0,0.0,95,0.00,,,0.00,0.0,meteohub,2013-10-19 11:13:00,
2013-10-19 07:18:00,72.1,70.7,29.89,South,184,0.0,0.0,95,0.00,,,0.00,0.0,meteohub,2013-10-19 11:18:00,
2013-10-19 07:23:00,72.1,70.7,29.89,South,184,0.0,0.0,95,0.00,,,0.00,0.0,meteohub,2013-10-19 11:23:00,
2013-10-19 07:28:00,72.1,70.7,29.89,South,184,0.0,0.0,95,0.00,,,0.00,0.0,meteohub,2013-10-19 11:28:00,
2013-10-19 07:33:00,72.1,70.7,29.90,South,184,0.0,0.0,95,0.00,,,0.00,0.0,meteohub,2013-10-19 11:33:00,
2013-10-19 07:38:00,72.1,70.7,29.90,SW,234,2.0,0.0,95,0.00,,,0.00,5.0,meteohub,2013-10-19 11:38:00,
2013-10-19 07:43:00,72.1,70.7,29.90,West,267,0.0,2.0,95,0.00,,,0.00,11.0,meteohub,2013-10-19 11:43:00,
2013-10-19 07:48:00,72.1,70.7,29.90,West,267,0.0,3.0,95,0.00,,,0.00,18.0,meteohub,2013-10-19 11:48:00,
2013-10-19 07:53:00,72.1,70.7,29.90,West,267,0.0,3.0,95,0.00,,,0.00,28.0,meteohub,2013-10-19 11:53:00,
2013-10-19 07:58:00,72.0,70.5,29.90,West,267,0.0,2.0,95,0.00,,,0.00,40.0,meteohub,2013-10-19 11:58:00,
2013-10-19 08:03:00,72.0,70.5,29.90,West,267,0.0,2.0,95,0.00,,,0.00,53.0,meteohub,2013-10-19 12:03:00,
2013-10-19 08:08:00,72.0,70.5,29.90,West,267,0.0,2.0,95,0.00,,,0.00,70.0,meteohub,2013-10-19 12:08:00,
2013-10-19 08:13:00,72.1,70.7,29.90,West,267,0.0,2.0,95,0.00,,,0.00,60.0,meteohub,2013-10-19 12:13:00,
2013-10-19 08:18:00,72.1,70.7,29.90,West,267,0.0,1.0,95,0.00,,,0.00,62.0,meteohub,2013-10-19 12:18:00,
2013-10-19 08:23:00,72.1,70.3,29.90,SW,230,0.0,1.0,94,0.00,,,0.00,60.0,meteohub,2013-10-19 12:23:00,
2013-10-19 08:28:00,72.3,70.5,29.90,SW,230,0.0,1.0,94,0.00,,,0.00,104.0,meteohub,2013-10-19 12:28:00,
2013-10-19 08:33:00,72.3,70.5,29.90,SW,232,1.0,1.0,94,0.00,,,0.00,69.0,meteohub,2013-10-19 12:33:00,
2013-10-19 08:38:00,72.3,70.2,29.90,WSW,240,2.0,2.0,93,0.00,,,0.00,91.0,meteohub,2013-10-19 12:38:00,
2013-10-19 08:43:00,72.3,70.2,29.90,WSW,240,0.0,2.0,93,0.00,,,0.00,95.0,meteohub,2013-10-19 12:43:00,
2013-10-19 08:48:00,72.3,70.2,29.91,WSW,241,0.0,2.0,93,0.00,,,0.00,84.0,meteohub,2013-10-19 12:48:00,
2013-10-19 08:53:00,72.3,70.2,29.91,WSW,241,0.0,3.0,93,0.00,,,0.00,104.0,meteohub,2013-10-19 12:53:00,
2013-10-19 08:58:00,72.7,70.5,29.91,WSW,241,0.0,3.0,93,0.00,,,0.00,213.0,meteohub,2013-10-19 12:58:00,
2013-10-19 09:03:00,72.9,70.3,29.91,WSW,242,0.0,3.0,92,0.00,,,0.00,255.0,meteohub,2013-10-19 13:03:00,
2013-10-19 09:08:00,73.0,70.5,29.91,WSW,252,0.0,3.0,92,0.00,,,0.00,156.0,meteohub,2013-10-19 13:08:00,
2013-10-19 09:13:00,73.0,70.5,29.91,WSW,252,0.0,3.0,92,0.00,,,0.00,156.0,meteohub,2013-10-19 13:13:00,
2013-10-19 09:18:00,73.4,70.9,29.92,WSW,252,0.0,3.0,92,0.00,,,0.00,149.0,meteohub,2013-10-19 13:18:00,
2013-10-19 09:23:00,73.8,70.9,29.92,SE,138,0.0,3.0,91,0.00,,,0.00,171.0,meteohub,2013-10-19 13:23:00,
2013-10-19 09:28:00,73.9,71.1,29.92,WNW,292,0.0,1.0,91,0.00,,,0.00,195.0,meteohub,2013-10-19 13:28:00,
2013-10-19 09:34:00,74.1,71.1,29.92,WNW,292,1.0,3.0,90,0.00,,,0.00,193.0,meteohub,2013-10-19 13:34:00,
2013-10-19 09:39:00,74.3,71.4,29.92,WNW,292,0.0,3.0,91,0.00,,,0.00,188.0,meteohub,2013-10-19 13:39:00,
2013-10-19 09:44:00,74.3,71.4,29.92,NW,306,0.0,3.0,91,0.00,,,0.00,132.0,meteohub,2013-10-19 13:44:00,
2013-10-19 09:49:00,74.3,71.4,29.92,NW,306,0.0,4.0,91,0.00,,,0.00,111.0,meteohub,2013-10-19 13:49:00,
2013-10-19 09:54:00,74.1,71.2,29.92,NW,306,0.0,4.0,91,0.00,,,0.00,125.0,meteohub,2013-10-19 13:54:00,
2013-10-19 09:59:00,74.1,71.6,29.92,NW,306,0.0,4.0,92,0.00,,,0.00,156.0,meteohub,2013-10-19 13:59:00,
2013-10-19 10:04:00,74.1,71.6,29.92,NW,306,0.0,2.0,92,0.00,,,0.00,171.0,meteohub,2013-10-19 14:04:00,
2013-10-19 10:09:00,74.1,71.6,29.92,NW,306,0.0,1.0,92,0.00,,,0.00,163.0,meteohub,2013-10-19 14:09:00,
2013-10-19 10:14:00,74.5,72.0,29.92,NW,306,0.0,1.0,92,0.00,,,0.00,169.0,meteohub,2013-10-19 14:14:00,
2013-10-19 10:19:00,74.3,71.4,29.92,NW,306,0.0,1.0,91,0.00,,,0.00,204.0,meteohub,2013-10-19 14:19:00,
2013-10-19 10:24:00,74.1,71.2,29.92,NW,306,0.0,0.0,91,0.00,,,0.00,250.0,meteohub,2013-10-19 14:24:00,
2013-10-19 10:29:00,74.5,71.6,29.91,NW,306,0.0,0.0,91,0.00,,,0.00,315.0,meteohub,2013-10-19 14:29:00,
2013-10-19 10:34:00,74.7,71.8,29.91,NW,306,0.0,1.0,91,0.00,,,0.00,265.0,meteohub,2013-10-19 14:34:00,
2013-10-19 10:39:00,75.6,72.5,29.91,NNE,19,0.0,1.0,90,0.00,,,0.00,626.0,meteohub,2013-10-19 14:39:00,
2013-10-19 10:44:00,76.3,72.5,29.91,NNE,18,0.0,0.0,88,0.00,,,0.00,392.0,meteohub,2013-10-19 14:44:00,
2013-10-19 10:49:00,76.6,72.1,29.91,NNE,19,0.0,0.0,86,0.00,,,0.00,302.0,meteohub,2013-10-19 14:49:00,
2013-10-19 10:54:00,76.8,72.3,29.91,NNE,19,0.0,1.0,86,0.00,,,0.00,320.0,meteohub,2013-10-19 14:54:00,
2013-10-19 10:59:00,77.0,72.1,29.91,NNE,13,0.0,1.0,85,0.00,,,0.00,387.0,meteohub,2013-10-19 14:59:00,
2013-10-19 11:04:00,77.4,72.1,29.91,WNW,287,0.0,1.0,84,0.00,,,0.00,278.0,meteohub,2013-10-19 15:04:00,
2013-10-19 11:09:00,77.4,72.1,29.91,WNW,288,0.0,1.0,84,0.00,,,0.00,315.0,meteohub,2013-10-19 15:09:00,
2013-10-19 11:14:00,77.4,72.5,29.91,WNW,288,0.0,3.0,85,0.00,,,0.00,376.0,meteohub,2013-10-19 15:14:00,
2013-10-19 11:19:00,77.5,72.7,29.91,WNW,289,0.0,3.0,85,0.00,,,0.00,369.0,meteohub,2013-10-19 15:19:00,
2013-10-19 11:24:00,77.5,72.7,29.91,WNW,290,0.0,2.0,85,0.00,,,0.00,617.0,meteohub,2013-10-19 15:24:00,
2013-10-19 11:29:00,77.7,72.5,29.91,NNE,21,0.0,4.0,84,0.00,,,0.00,497.0,meteohub,2013-10-19 15:29:00,
2013-10-19 11:34:00,78.1,72.5,29.91,West,259,0.0,4.0,83,0.00,,,0.00,744.0,meteohub,2013-10-19 15:34:00,
2013-10-19 11:39:00,79.0,73.4,29.91,West,259,0.0,4.0,83,0.00,,,0.00,635.0,meteohub,2013-10-19 15:39:00,
2013-10-19 11:44:00,79.2,73.2,29.91,NW,323,1.0,2.0,82,0.00,,,0.00,749.0,meteohub,2013-10-19 15:44:00,
2013-10-19 11:49:00,79.2,73.2,29.91,WNW,300,0.0,5.0,82,0.00,,,0.00,745.0,meteohub,2013-10-19 15:49:00,
2013-10-19 11:54:00,79.2,72.9,29.91,NNW,331,5.0,5.0,81,0.00,,,0.00,707.0,meteohub,2013-10-19 15:54:00,
2013-10-19 11:59:00,79.2,73.6,29.91,NW,326,0.0,5.0,83,0.00,,,0.00,700.0,meteohub,2013-10-19 15:59:00,
2013-10-19 12:04:00,79.5,73.2,29.91,NW,309,0.0,8.0,81,0.00,,,0.00,712.0,meteohub,2013-10-19 16:04:00,
2013-10-19 12:09:00,79.7,73.4,29.90,NNW,333,0.0,8.0,81,0.00,,,0.00,714.0,meteohub,2013-10-19 16:09:00,
2013-10-19 12:14:00,80.1,73.4,29.90,NW,315,3.0,5.0,80,0.00,,,0.00,728.0,meteohub,2013-10-19 16:14:00,
2013-10-19 12:19:00,80.1,72.1,29.90,NW,318,0.0,5.0,77,0.00,,,0.00,724.0,meteohub,2013-10-19 16:19:00,
2013-10-19 12:24:00,80.2,72.3,29.90,NW,315,0.0,6.0,77,0.00,,,0.00,740.0,meteohub,2013-10-19 16:24:00,
2013-10-19 12:29:00,80.6,72.7,29.90,WNW,292,3.0,6.0,77,0.00,,,0.00,772.0,meteohub,2013-10-19 16:29:00,
2013-10-19 12:34:00,81.1,73.2,29.89,SW,236,0.0,6.0,77,0.00,,,0.00,758.0,meteohub,2013-10-19 16:34:00,
2013-10-19 12:39:00,81.5,73.2,29.90,SE,133,0.0,5.0,76,0.00,,,0.00,765.0,meteohub,2013-10-19 16:39:00,
2013-10-19 12:44:00,82.0,73.4,29.89,SE,133,0.0,5.0,75,0.00,,,0.00,784.0,meteohub,2013-10-19 16:44:00,
2013-10-19 12:49:00,82.4,73.2,29.89,SE,134,0.0,5.0,74,0.00,,,0.00,821.0,meteohub,2013-10-19 16:49:00,
2013-10-19 12:54:00,82.6,73.0,29.89,WNW,298,3.0,5.0,73,0.00,,,0.00,782.0,meteohub,2013-10-19 16:54:00,
2013-10-19 12:59:00,82.2,73.0,29.89,SW,220,0.0,5.0,74,0.00,,,0.00,837.0,meteohub,2013-10-19 16:59:00,
2013-10-19 13:04:00,82.4,72.9,29.89,NW,313,0.0,6.0,73,0.00,,,0.00,863.0,meteohub,2013-10-19 17:04:00,
2013-10-19 13:09:00,82.6,72.1,29.88,WNW,286,1.0,6.0,71,0.00,,,0.00,686.0,meteohub,2013-10-19 17:09:00,
2013-10-19 13:14:00,82.6,72.1,29.88,SW,232,0.0,7.0,71,0.00,,,0.00,378.0,meteohub,2013-10-19 17:14:00,
2013-10-19 13:19:00,82.6,72.7,29.88,West,277,2.0,7.0,72,0.00,,,0.00,450.0,meteohub,2013-10-19 17:19:00,
2013-10-19 13:24:00,82.8,73.2,29.88,SSE,149,0.0,7.0,73,0.00,,,0.00,578.0,meteohub,2013-10-19 17:24:00,
2013-10-19 13:29:00,82.9,73.4,29.88,WNW,298,0.0,7.0,73,0.00,,,0.00,420.0,meteohub,2013-10-19 17:29:00,
2013-10-19 13:34:00,83.1,73.2,29.88,WNW,297,0.0,7.0,72,0.00,,,0.00,475.0,meteohub,2013-10-19 17:34:00,
2013-10-19 13:39:00,83.1,73.2,29.87,WNW,297,0.0,7.0,72,0.00,,,0.00,352.0,meteohub,2013-10-19 17:39:00,
2013-10-19 13:44:00,82.8,72.3,29.87,SE,133,1.0,5.0,71,0.00,,,0.00,218.0,meteohub,2013-10-19 17:44:00,
2013-10-19 13:49:00,82.6,72.7,29.86,West,281,0.0,7.0,72,0.00,,,0.00,269.0,meteohub,2013-10-19 17:49:00,
2013-10-19 13:54:00,82.0,72.5,29.86,NW,304,3.0,7.0,73,0.00,,,0.00,281.0,meteohub,2013-10-19 17:54:00,
2013-10-19 13:59:00,81.9,72.7,29.86,West,281,2.0,7.0,74,0.00,,,0.00,455.0,meteohub,2013-10-19 17:59:00,
2013-10-19 14:05:00,82.0,72.5,29.86,West,281,0.0,5.0,73,0.00,,,0.00,329.0,meteohub,2013-10-19 18:05:00,
2013-10-19 14:10:00,82.2,72.7,29.86,SSW,197,0.0,5.0,73,0.00,,,0.00,279.0,meteohub,2013-10-19 18:10:00,
2013-10-19 14:15:00,82.8,73.6,29.85,WNW,294,2.0,2.0,74,0.00,,,0.00,860.0,meteohub,2013-10-19 18:15:00,
2013-10-19 14:20:00,82.9,73.4,29.85,NW,305,0.0,2.0,73,0.00,,,0.00,810.0,meteohub,2013-10-19 18:20:00,
2013-10-19 14:25:00,82.9,73.0,29.85,NW,323,0.0,5.0,72,0.00,,,0.00,798.0,meteohub,2013-10-19 18:25:00,
2013-10-19 14:30:00,83.7,73.6,29.85,NNW,327,0.0,6.0,72,0.00,,,0.00,823.0,meteohub,2013-10-19 18:30:00,
2013-10-19 14:35:00,84.0,73.2,29.85,South,183,0.0,6.0,70,0.00,,,0.00,724.0,meteohub,2013-10-19 18:35:00,
2013-10-19 14:40:00,84.4,73.6,29.85,SW,234,0.0,4.0,70,0.00,,,0.00,116.0,meteohub,2013-10-19 18:40:00,
2013-10-19 14:45:00,83.5,73.0,29.85,NW,305,6.0,6.0,71,0.00,,,0.00,202.0,meteohub,2013-10-19 18:45:00,
2013-10-19 14:50:00,82.2,72.7,29.84,WNW,299,3.0,8.0,73,0.00,,,0.00,441.0,meteohub,2013-10-19 18:50:00,
2013-10-19 14:55:00,81.9,73.6,29.84,WNW,294,1.0,8.0,76,0.00,,,0.00,232.0,meteohub,2013-10-19 18:55:00,
2013-10-19 15:00:00,81.7,73.4,29.84,NW,308,2.0,8.0,76,0.00,,,0.00,306.0,meteohub,2013-10-19 19:00:00,
2013-10-19 15:05:00,81.5,73.6,29.84,NW,307,0.0,8.0,77,0.00,,,0.00,322.0,meteohub,2013-10-19 19:05:00,
2013-10-19 15:11:00,81.9,73.6,29.84,WNW,296,0.0,5.0,76,0.00,,,0.00,309.0,meteohub,2013-10-19 19:11:00,
2013-10-19 15:16:00,82.2,73.0,29.84,WNW,290,0.0,5.0,74,0.00,,,0.00,244.0,meteohub,2013-10-19 19:16:00,
2013-10-19 15:21:00,82.2,73.6,29.84,WNW,290,0.0,5.0,75,0.00,,,0.00,199.0,meteohub,2013-10-19 19:21:00,
2013-10-19 15:26:00,82.2,73.6,29.84,WNW,290,0.0,5.0,75,0.00,,,0.00,211.0,meteohub,2013-10-19 19:26:00,
2013-10-19 15:31:00,82.2,73.0,29.83,WNW,290,2.0,4.0,74,0.00,,,0.00,267.0,meteohub,2013-10-19 19:31:00,
2013-10-19 15:36:00,82.6,73.4,29.83,WNW,290,0.0,2.0,74,0.00,,,0.00,617.0,meteohub,2013-10-19 19:36:00,
2013-10-19 15:41:00,83.5,73.9,29.83,WNW,292,0.0,6.0,73,0.00,,,0.00,638.0,meteohub,2013-10-19 19:41:00,
2013-10-19 15:46:00,83.5,73.0,29.83,WNW,288,1.0,6.0,71,0.00,,,0.00,200.0,meteohub,2013-10-19 19:46:00,
2013-10-19 15:51:00,83.1,73.6,29.83,WNW,300,0.0,6.0,73,0.00,,,0.00,710.0,meteohub,2013-10-19 19:51:00,
2013-10-19 15:56:00,82.9,73.4,29.83,WNW,300,0.0,6.0,73,0.00,,,0.00,517.0,meteohub,2013-10-19 19:56:00,
2013-10-19 16:01:00,82.8,73.2,29.83,WNW,285,0.0,6.0,73,0.00,,,0.00,139.0,meteohub,2013-10-19 20:01:00,
2013-10-19 16:06:00,82.8,73.6,29.83,WNW,285,0.0,3.0,74,0.00,,,0.00,113.0,meteohub,2013-10-19 20:06:00,
2013-10-19 16:11:00,82.6,73.4,29.83,WNW,285,0.0,3.0,74,0.00,,,0.00,141.0,meteohub,2013-10-19 20:11:00,
2013-10-19 16:16:00,82.4,73.8,29.83,SSW,209,0.0,1.0,75,0.00,,,0.00,130.0,meteohub,2013-10-19 20:16:00,
2013-10-19 16:21:00,82.6,74.3,29.83,SSW,209,0.0,0.0,76,0.00,,,0.00,116.0,meteohub,2013-10-19 20:21:00,
2013-10-19 16:26:00,82.0,74.1,29.82,SSE,148,0.0,1.0,77,0.00,,,0.00,105.0,meteohub,2013-10-19 20:26:00,
2013-10-19 16:31:00,81.3,74.1,29.82,ENE,78,0.0,1.0,79,0.00,,,0.00,69.0,meteohub,2013-10-19 20:31:00,
2013-10-19 16:36:00,80.8,73.9,29.82,ESE,103,0.0,3.0,80,0.00,,,0.00,51.0,meteohub,2013-10-19 20:36:00,
2013-10-19 16:41:00,80.2,73.9,29.82,South,187,0.0,3.0,81,0.00,,,0.00,54.0,meteohub,2013-10-19 20:41:00,
2013-10-19 16:46:00,80.1,74.1,29.83,East,87,2.0,3.0,82,0.00,,,0.00,49.0,meteohub,2013-10-19 20:46:00,
2013-10-19 16:51:00,79.5,73.9,29.83,East,88,0.0,3.0,83,0.00,,,0.00,40.0,meteohub,2013-10-19 20:51:00,
2013-10-19 16:56:00,79.3,74.1,29.83,East,88,0.0,3.0,84,0.00,,,0.00,21.0,meteohub,2013-10-19 20:56:00,
2013-10-19 17:01:00,78.1,73.6,29.86,WSW,243,3.0,3.0,86,0.00,,,0.00,9.0,meteohub,2013-10-19 21:01:00,
2013-10-19 17:07:00,75.7,72.3,29.85,NNE,18,4.0,16.0,89,0.01,,,0.01,63.0,meteohub,2013-10-19 21:07:00,
2013-10-19 17:12:00,74.5,72.0,29.86,SSW,213,0.0,16.0,92,0.02,,,0.02,84.0,meteohub,2013-10-19 21:12:00,
2013-10-19 17:17:00,74.1,72.0,29.86,South,177,0.0,16.0,93,0.02,,,0.02,69.0,meteohub,2013-10-19 21:17:00,
2013-10-19 17:22:00,73.9,71.8,29.86,South,175,0.0,7.0,93,0.02,,,0.02,67.0,meteohub,2013-10-19 21:22:00,
2013-10-19 17:27:00,73.8,72.0,29.85,South,175,0.0,1.0,94,0.03,,,0.03,70.0,meteohub,2013-10-19 21:27:00,
2013-10-19 17:32:00,73.8,72.0,29.85,South,175,0.0,1.0,94,0.03,,,0.03,69.0,meteohub,2013-10-19 21:32:00,
2013-10-19 17:37:00,73.6,71.8,29.85,SW,217,0.0,1.0,94,0.04,,,0.04,56.0,meteohub,2013-10-19 21:37:00,
2013-10-19 17:42:00,73.8,72.3,29.85,South,175,0.0,0.0,95,0.04,,,0.04,54.0,meteohub,2013-10-19 21:42:00,
2013-10-19 17:47:00,73.8,72.3,29.85,South,175,0.0,0.0,95,0.04,,,0.04,40.0,meteohub,2013-10-19 21:47:00,
2013-10-19 17:52:00,73.8,72.3,29.85,South,175,0.0,0.0,95,0.04,,,0.04,26.0,meteohub,2013-10-19 21:52:00,
2013-10-19 17:57:00,73.8,72.3,29.86,South,175,0.0,0.0,95,0.04,,,0.04,25.0,meteohub,2013-10-19 21:57:00,
2013-10-19 18:02:00,73.9,72.5,29.85,South,175,0.0,0.0,95,0.04,,,0.05,32.0,meteohub,2013-10-19 22:02:00,
2013-10-19 18:07:00,73.9,72.5,29.86,South,175,0.0,1.0,95,0.04,,,0.05,25.0,meteohub,2013-10-19 22:07:00,
2013-10-19 18:12:00,73.9,72.5,29.86,South,175,0.0,1.0,95,0.03,,,0.05,23.0,meteohub,2013-10-19 22:12:00,
2013-10-19 18:17:00,73.9,72.7,29.86,South,175,0.0,1.0,96,0.03,,,0.05,16.0,meteohub,2013-10-19 22:17:00,
2013-10-19 18:22:00,73.8,72.5,29.86,South,175,0.0,1.0,96,0.03,,,0.05,5.0,meteohub,2013-10-19 22:22:00,
2013-10-19 18:27:00,73.8,72.5,29.86,South,175,0.0,1.0,96,0.02,,,0.05,9.0,meteohub,2013-10-19 22:27:00,
2013-10-19 18:32:00,73.8,72.5,29.86,SE,133,1.0,1.0,96,0.03,,,0.06,5.0,meteohub,2013-10-19 22:32:00,
2013-10-19 18:37:00,73.8,72.5,29.86,West,279,0.0,4.0,96,0.02,,,0.06,0.0,meteohub,2013-10-19 22:37:00,
2013-10-19 18:42:00,73.6,72.3,29.87,West,279,1.0,4.0,96,0.02,,,0.06,0.0,meteohub,2013-10-19 22:42:00,
2013-10-19 18:47:00,73.4,72.1,29.87,West,279,0.0,4.0,96,0.02,,,0.06,0.0,meteohub,2013-10-19 22:47:00,
2013-10-19 18:52:00,73.4,72.1,29.87,West,279,0.0,3.0,96,0.02,,,0.06,0.0,meteohub,2013-10-19 22:52:00,
2013-10-19 18:57:00,73.4,72.1,29.86,WNW,288,0.0,3.0,96,0.03,,,0.07,0.0,meteohub,2013-10-19 22:57:00,
2013-10-19 19:02:00,73.2,72.0,29.86,WNW,288,0.0,3.0,96,0.02,,,0.07,0.0,meteohub,2013-10-19 23:02:00,
2013-10-19 19:07:00,73.0,71.8,29.86,West,281,0.0,3.0,96,0.02,,,0.07,0.0,meteohub,2013-10-19 23:07:00,
2013-10-19 19:12:00,72.3,70.9,29.85,WNW,284,1.0,6.0,95,0.03,,,0.08,0.0,meteohub,2013-10-19 23:12:00,
2013-10-19 19:17:00,72.1,70.7,29.85,WNW,284,0.0,6.0,95,0.03,,,0.08,0.0,meteohub,2013-10-19 23:17:00,
2013-10-19 19:22:00,72.0,70.5,29.85,WNW,296,0.0,6.0,95,0.03,,,0.08,0.0,meteohub,2013-10-19 23:22:00,
2013-10-19 19:27:00,71.8,70.3,29.85,WNW,287,0.0,3.0,95,0.03,,,0.08,0.0,meteohub,2013-10-19 23:27:00,
2013-10-19 19:32:00,71.8,70.3,29.86,WNW,287,0.0,3.0,95,0.02,,,0.08,0.0,meteohub,2013-10-19 23:32:00,
2013-10-19 19:37:00,71.4,70.0,29.86,WNW,287,0.0,3.0,95,0.02,,,0.08,0.0,meteohub,2013-10-19 23:37:00,
2013-10-19 19:42:00,71.2,69.8,29.86,WNW,287,0.0,4.0,95,0.03,,,0.09,0.0,meteohub,2013-10-19 23:42:00,
2013-10-19 19:47:00,71.2,69.8,29.86,WNW,287,0.0,4.0,95,0.03,,,0.09,0.0,meteohub,2013-10-19 23:47:00,
2013-10-19 19:52:00,71.1,69.6,29.87,WNW,287,0.0,4.0,95,0.02,,,0.09,0.0,meteohub,2013-10-19 23:52:00,
2013-10-19 19:57:00,71.1,69.6,29.87,WNW,287,0.0,1.0,95,0.02,,,0.09,0.0,meteohub,2013-10-19 23:57:00,
2013-10-19 20:02:00,71.1,69.8,29.87,WNW,287,0.0,0.0,96,0.02,,,0.09,0.0,meteohub,2013-10-20 00:02:00,
2013-10-19 20:07:00,71.1,69.8,29.87,WNW,287,0.0,0.0,96,0.02,,,0.09,0.0,meteohub,2013-10-20 00:07:00,
2013-10-19 20:12:00,71.1,69.8,29.87,WNW,287,0.0,0.0,96,0.02,,,0.10,0.0,meteohub,2013-10-20 00:12:00,
2013-10-19 20:17:00,70.9,69.4,29.87,WNW,287,0.0,0.0,95,0.02,,,0.10,0.0,meteohub,2013-10-20 00:17:00,
2013-10-19 20:22:00,70.7,69.3,29.87,WNW,287,0.0,1.0,95,0.02,,,0.10,0.0,meteohub,2013-10-20 00:22:00,
2013-10-19 20:27:00,70.7,69.4,29.87,WNW,287,0.0,1.0,96,0.02,,,0.10,0.0,meteohub,2013-10-20 00:27:00,
2013-10-19 20:32:00,70.5,69.3,29.87,WNW,287,0.0,1.0,96,0.02,,,0.10,0.0,meteohub,2013-10-20 00:32:00,
2013-10-19 20:37:00,70.5,69.3,29.87,WNW,287,0.0,0.0,96,0.02,,,0.10,0.0,meteohub,2013-10-20 00:37:00,
2013-10-19 20:42:00,70.3,69.1,29.87,WNW,287,0.0,0.0,96,0.01,,,0.10,0.0,meteohub,2013-10-20 00:42:00,
2013-10-19 20:47:00,70.3,69.1,29.87,WNW,287,0.0,0.0,96,0.01,,,0.10,0.0,meteohub,2013-10-20 00:47:00,
2013-10-19 20:52:00,70.2,68.9,29.87,WNW,287,0.0,0.0,96,0.01,,,0.10,0.0,meteohub,2013-10-20 00:52:00,
2013-10-19 20:57:00,70.0,68.7,29.88,WNW,287,0.0,0.0,96,0.02,,,0.11,0.0,meteohub,2013-10-20 00:57:00,
2013-10-19 21:02:00,70.0,68.7,29.88,WNW,287,0.0,0.0,96,0.02,,,0.11,0.0,meteohub,2013-10-20 01:02:00,
2013-10-19 21:07:00,69.8,68.5,29.88,WNW,287,0.0,0.0,96,0.02,,,0.11,0.0,meteohub,2013-10-20 01:07:00,
2013-10-19 21:12:00,69.6,68.4,29.88,WNW,287,0.0,0.0,96,0.01,,,0.11,0.0,meteohub,2013-10-20 01:12:00,
2013-10-19 21:17:00,69.6,68.4,29.88,WNW,287,0.0,0.0,96,0.01,,,0.11,0.0,meteohub,2013-10-20 01:17:00,
2013-10-19 21:22:00,69.6,68.7,29.88,WNW,287,0.0,0.0,97,0.01,,,0.11,0.0,meteohub,2013-10-20 01:22:00,
2013-10-19 21:27:00,69.6,68.4,29.88,WNW,287,0.0,0.0,96,0.01,,,0.11,0.0,meteohub,2013-10-20 01:27:00,
2013-10-19 21:32:00,69.4,68.2,29.88,WNW,287,0.0,0.0,96,0.02,,,0.12,0.0,meteohub,2013-10-20 01:32:00,
2013-10-19 21:37:00,69.4,68.2,29.88,WNW,287,0.0,0.0,96,0.02,,,0.12,0.0,meteohub,2013-10-20 01:37:00,
2013-10-19 21:42:00,69.3,68.0,29.88,WNW,287,0.0,0.0,96,0.02,,,0.12,0.0,meteohub,2013-10-20 01:42:00,
2013-10-19 21:47:00,69.3,68.4,29.88,WNW,287,0.0,0.0,97,0.02,,,0.12,0.0,meteohub,2013-10-20 01:47:00,
2013-10-19 21:52:00,69.1,68.2,29.88,WNW,287,0.0,0.0,97,0.01,,,0.12,0.0,meteohub,2013-10-20 01:52:00,
2013-10-19 21:57:00,69.1,68.2,29.88,WNW,287,0.0,0.0,97,0.01,,,0.12,0.0,meteohub,2013-10-20 01:57:00,
2013-10-19 22:02:00,68.9,68.0,29.88,WNW,287,0.0,0.0,97,0.01,,,0.12,0.0,meteohub,2013-10-20 02:02:00,
2013-10-19 22:07:00,68.9,68.0,29.88,WNW,287,0.0,0.0,97,0.01,,,0.12,0.0,meteohub,2013-10-20 02:07:00,
2013-10-19 22:12:00,69.1,68.2,29.88,WNW,287,0.0,0.0,97,0.01,,,0.12,0.0,meteohub,2013-10-20 02:12:00,
2013-10-19 22:17:00,68.9,68.0,29.88,WNW,287,0.0,0.0,97,0.01,,,0.12,0.0,meteohub,2013-10-20 02:17:00,
2013-10-19 22:22:00,68.7,67.8,29.88,WNW,287,0.0,0.0,97,0.01,,,0.12,0.0,meteohub,2013-10-20 02:22:00,
2013-10-19 22:27:00,68.9,68.0,29.88,WNW,287,0.0,0.0,97,0.02,,,0.13,0.0,meteohub,2013-10-20 02:27:00,
2013-10-19 22:32:00,69.1,68.2,29.88,WNW,287,0.0,0.0,97,0.01,,,0.13,0.0,meteohub,2013-10-20 02:32:00,
2013-10-19 22:37:00,69.1,68.2,29.88,WNW,287,0.0,0.0,97,0.01,,,0.13,0.0,meteohub,2013-10-20 02:37:00,
2013-10-19 22:42:00,69.1,68.2,29.88,WNW,287,0.0,0.0,97,0.01,,,0.13,0.0,meteohub,2013-10-20 02:42:00,
2013-10-19 22:47:00,69.1,68.2,29.88,WNW,287,0.0,0.0,97,0.01,,,0.13,0.0,meteohub,2013-10-20 02:47:00,
2013-10-19 22:52:00,69.3,68.4,29.88,WNW,287,0.0,0.0,97,0.02,,,0.14,0.0,meteohub,2013-10-20 02:52:00,
2013-10-19 22:57:00,69.3,68.4,29.89,WNW,287,0.0,0.0,97,0.02,,,0.14,0.0,meteohub,2013-10-20 02:57:00,
2013-10-19 23:02:00,69.3,68.4,29.89,WNW,287,0.0,0.0,97,0.02,,,0.14,0.0,meteohub,2013-10-20 03:02:00,
2013-10-19 23:07:00,69.4,68.5,29.89,WNW,287,0.0,0.0,97,0.02,,,0.14,0.0,meteohub,2013-10-20 03:07:00,
2013-10-19 23:12:00,69.4,68.5,29.89,WNW,287,0.0,1.0,97,0.02,,,0.14,0.0,meteohub,2013-10-20 03:12:00,
2013-10-19 23:17:00,69.4,68.5,29.89,WNW,287,1.0,1.0,97,0.02,,,0.14,0.0,meteohub,2013-10-20 03:17:00,
2013-10-19 23:22:00,69.3,68.4,29.89,WNW,287,0.0,1.0,97,0.01,,,0.14,0.0,meteohub,2013-10-20 03:22:00,
2013-10-19 23:27:00,69.3,68.4,29.89,WNW,287,1.0,1.0,97,0.01,,,0.14,0.0,meteohub,2013-10-20 03:27:00,
2013-10-19 23:32:00,69.3,68.4,29.89,WNW,287,0.0,1.0,97,0.01,,,0.14,0.0,meteohub,2013-10-20 03:32:00,
2013-10-19 23:37:00,69.3,68.4,29.89,WNW,287,0.0,1.0,97,0.02,,,0.15,0.0,meteohub,2013-10-20 03:37:00,
2013-10-19 23:42:00,69.1,68.2,29.89,WNW,294,0.0,4.0,97,0.02,,,0.15,0.0,meteohub,2013-10-20 03:42:00,
2013-10-19 23:47:00,69.1,68.2,29.89,WNW,287,2.0,4.0,97,0.01,,,0.15,0.0,meteohub,2013-10-20 03:47:00,
2013-10-19 23:52:00,68.9,68.0,29.89,WNW,287,0.0,4.0,97,0.01,,,0.15,0.0,meteohub,2013-10-20 03:52:00,
2013-10-19 23:57:00,68.9,68.0,29.89,NW,320,0.0,4.0,97,0.01,,,0.15,0.0,meteohub,2013-10-20 03:57:00,